Regional Weather Roundup
Issued by NWS Boston, MA

Home | Current Version | Previous Version | Text Only | Print | Product List | Glossary On
Versions: 1 2 3 4 5 6 7 8 9 10 11 12 13 14 15 16 17 18 19 20 21 22 23 24 25 26 27 28 29 30 31 32 33 34 35 36 37 38 39 40 41 42 43 44 45 46 47 48 49 50
428
ASUS41 KBOX 091310
RWRBOX

REGIONAL WEATHER ROUNDUP
NATIONAL WEATHER SERVICE TAUNTON MA
800 AM EST TUE FEB 09 2016

NOTE:  "FAIR" INDICATES FEW OR NO CLOUDS BELOW 12,000 FEET WITH NO
SIGNIFICANT WEATHER AND/OR OBSTRUCTIONS TO VISIBILITY.  THE FOLLOWING
OBSERVATION LOCATIONS DO NOT REPORT PRESENT WEATHER...PROVINCETOWN...
SMITHFIELD...BLOCK ISLAND...KEENE...AND OXFORD.

MAZALL-091400-
EASTERN MASSACHUSETTS

CITY           SKY/WX    TMP DP  RH WIND       PRES   REMARKS
BOSTON         CLOUDY    21  16  81 W7        29.75R WCI  12
BEVERLY        CLOUDY    20  13  74 W5        29.74R WCI  13
LAWRENCE       CLOUDY    19  13  77 N7        29.75R WCI  10
BEDFORD        CLOUDY    18  14  84 CALM      29.67
BLUE HILL        N/A     18  15  88 NW6       29.69R WCI  10
NORWOOD        CLOUDY    21  15  78 W5        29.74R WCI  15
MARSHFIELD     CLOUDY    27  25  93 W7        29.74R WCI  19
PLYMOUTH       CLOUDY    23  22  96 NW8       29.71R WCI  14
TAUNTON        CLOUDY    24  17  74 VRB5      29.71R WCI  18
NEW BEDFORD    CLOUDY    23  20  88 VRB3      29.71R
$$

MAZALL-091400-
CAPE COD AND THE ISLANDS

CITY           SKY/WX    TMP DP  RH WIND       PRES   REMARKS
FALMOUTH       CLOUDY    27  25  93 NW6       29.70R WCI  20
HYANNIS        CLOUDY    30  25  81 W3        29.69R
CHATHAM        CLOUDY    30  27  88 NW3       29.69R
PROVINCETOWN   CLOUDY    31  25  78 CALM      29.71R
NANTUCKET      CLOUDY    33  28  81 CALM      29.68R
MARTHAS VNYRD  MIX PCPN  29  24  82 NW5       29.69R WCI  24
$$

MAZALL-091400-
CENTRAL AND WESTERN MASSACHUSETTS

CITY           SKY/WX    TMP DP  RH WIND       PRES   REMARKS
WORCESTER      CLOUDY    16  12  84 E5        29.68R WCI   9
FITCHBURG      PTSUNNY   16  12  84 CALM      29.74R
ORANGE         PTSUNNY   16  12  84 S5        29.71R WCI   9
SPRINGFIELD    PTSUNNY   16  13  89 SE3       29.73R
WESTFIELD      CLOUDY    14  11  87 CALM      29.73R
NORTH ADAMS    CLOUDY    21  12  68 E6        29.64S WCI  13
PITTSFIELD     CLOUDY    18  13  80 SE3       29.62R
$$

RIZALL-091400-
RHODE ISLAND

CITY           SKY/WX    TMP DP  RH WIND       PRES   REMARKS
PROVIDENCE     CLOUDY    21  16  81 N7        29.73R WCI  12
NEWPORT        CLOUDY    22  19  89 N7        29.71S WCI  13
BLOCK ISLAND   CLOUDY    27  25  93 N7        29.68F WCI  19
SMITHFIELD     CLOUDY    19  16  86 N5        29.70R WCI  13
WESTERLY       CLOUDY    22  17  81 N6        29.72F WCI  14
$$

CTZALL-091400-
CONNECTICUT

CITY           SKY/WX    TMP DP  RH WIND       PRES   REMARKS
BRADLEY INTL   PTSUNNY   18  15  88 CALM      29.73R
HARTFORD       CLOUDY    21  17  84 NE3       29.74R
BRIDGEPORT     CLOUDY    24  18  77 N8        29.72F WCI  15
DANBURY        CLOUDY    20  15  81 E3        29.71S
GROTON         CLOUDY    22  18  85 NE6       29.71F WCI  14
NEW HAVEN      CLOUDY    21  18  88 N5        29.72S WCI  15
CHESTER        CLOUDY    21  19  93 NE3       29.70F
MERIDEN        CLOUDY    22  17  81 N5        29.72R WCI  16
WILLIMANTIC    CLOUDY    19  15  84 N3        29.73S
OXFORD         CLOUDY    19   7  58 E8        29.68R WCI   9
$$

MEZ002-015-021-024-NHZ003-005-008-011-012-014-VTZ005-008-091400-
NORTHERN NEW ENGLAND

CITY           SKY/WX    TMP DP  RH WIND       PRES   REMARKS
PORTLAND ME    CLOUDY    18  13  80 N9        29.70F WCI   7
BANGOR ME      LGT SNOW  15  11  83 N10       29.73R FOG     WCI   2
CONCORD NH     MOSUNNY   21  12  68 N3        29.69F
MANCHESTER NH  PTSUNNY   20  13  74 N5        29.69S WCI  13
NASHUA NH      CLOUDY    19  16  86 CALM      29.74R
PORTSMOUTH NH  PTSUNNY   19  12  76 N9G18     29.69F WCI   8
JAFFREY NH     CLOUDY    16  12  84 VRB3      29.64S
KEENE NH       CLOUDY    18  10  73 N6        29.67S WCI   9
BURLINGTON VT  MOCLDY    20  14  77 SE5       29.68F WCI  13
MT. WASHINGTON FLURRIES  10   5  79 W7          N/A  WCI   0
$$

NYZ052-076-091400-
EASTERN NEW YORK

CITY           SKY/WX    TMP DP  RH WIND       PRES   REMARKS
ALBANY         FLURRIES  24  20  84 CALM      29.67S
NEW YORK CITY  CLOUDY    29  23  78 NE10      29.69F WCI  20
$$

ANZALL-091400-
MARINE OBSERVATIONS

STATION/POSITION TIME  TEMP    WIND        PRES    VSBY  WAVE
                       AIR SEA DIR/SP/G                  HT/PER
                 (UTC) (F)     (DEG/KT/KT) (MB)    (MI)  (FT/S)
BOSTON BUOY      1250   29 41  360/ 14/ 17 1006.0R        13/14
BUZZARDS BAY     1200           20/ 10/ 11 1006.2R
NANTUCKET SOUND  1250   33 41   10/ 10/ 12 1004.7R         2/ 5
MASS BAY-STELLWA 1204   28 42  360/ 16/ 21   N/A    1 7/8 11/14
ISLE OF SHOALS   1200   23      10/ 20/ 22 1004.6F
S OF BLOCK IS    NOT AVBL
$$

......................KEY.........................
  SKY/WX - SKY CONDITION/PRESENT WEATHER
  TMP    - TEMPERATURE IN FAHRENHEIT
  DWPT   - DEWPOINT IN FAHRENHEIT
  RH     - RELATIVE HUMIDITY IN PERCENT
  WIND   - DIRECTION AND SPEED IN MPH
  PRES   - MEAN SEA LEVEL PRESSURE IN INCHES OF HG
  WCI    - WIND CHILL INDEX
  VSB    - VISIBILITY IN MILES
  HX     - HEAT INDEX
  TC     - TEMPERATURE IN CELSIUS
  VRB    - VARIABLE WIND DIRECTION
  N/A    - NOT AVAILABLE




USA.gov is the U.S. government's official web portal to all federal, state and local government web resources and services.